Medan, Indonesia

11:14 PM WIB on August 22, 2017 (GMT +0700)
Polonia

Weather History for WIMM - July, 2013

Change the Weather History Date:

Wednesday, July 17, 2013

  Actual Average Record
Temperature  
Mean Temperature 82 °F -  
Max Temperature 89 °F - - ()
Min Temperature 75 °F - - ()
Cooling Degree Days 17    
Growing Degree Days 32 (Base 50)    
Moisture  
Dew Point 74 °F    
Average Humidity 79    
Maximum Humidity 94    
Minimum Humidity 58    
Precipitation  
Precipitation 0.00 in - - ()
Sea Level Pressure  
Sea Level Pressure 29.81 in    
Wind  
Wind Speed 2 mph ()    
Max Wind Speed 15 mph    
Max Gust Speed 20 mph    
Visibility 3.5 miles    
Events Rain , Thunderstorm    
T = Trace of Precipitation, MM = Missing Value Source: Averaged Metar Reports

Daily Weather History Graph

Daily Weather History Graph

Search for Another Location

Airport or City:

Trip Planner

Search our weather history database for the weather conditions in past years. The results will help you decide how hot, cold, wet, or windy it might be!

Date:

Astronomy

Jul. 17, 2013 Rise Set
Actual Time 6:22 AM WIB 6:40 PM WIB
Civil Twilight 6:00 AM WIB 7:02 PM WIB
Nautical Twilight 5:34 AM WIB 7:28 PM WIB
Astronomical Twilight 5:07 AM WIB 7:54 PM WIB
Moon 1:15 PM WIB (7/17) 12:40 AM WIB (7/17)
Length of Visible Light 13h 02m
Length of Day
12h 18m
First Quarter, 62% of the Moon is Illuminated
Jul 17
First Quarter
Jul 23
Full
Jul 30
Last Quarter
Aug 7
New
Aug 14
First Quarter

Hourly Weather History & Observations

Time (WIB) Temp. Heat Index Dew Point Humidity Pressure Visibility Wind Dir Wind Speed Gust Speed Precip Events Conditions
12:00 AM 78.8 °F - 75.2 °F 89% 29.86 in 1.9 mi Calm Calm - N/A   Haze
12:30 AM 78.8 °F - 75.2 °F 89% 29.83 in 1.9 mi South 4.6 mph - N/A   Haze
1:00 AM 78 °F - 75 °F 89% 29.83 in 2 mi Calm Calm - -   Overcast
1:00 AM 78.8 °F - 75.2 °F 89% 29.83 in 2.5 mi Calm Calm - N/A   Haze
1:30 AM 78.8 °F - 75.2 °F 89% 29.80 in 2.5 mi Calm Calm - N/A   Haze
2:00 AM 78.8 °F - 75.2 °F 89% 29.80 in 2.5 mi Calm Calm - N/A   Haze
3:00 AM 78.8 °F - 75.2 °F 89% 29.80 in 2.5 mi Calm Calm - N/A   Haze
3:30 AM 78.8 °F - 75.2 °F 89% 29.80 in 2.5 mi South 4.6 mph - N/A   Haze
4:00 AM 78 °F - 74 °F 84% 29.80 in 3 mi SSW 4.6 mph - -   Haze
4:00 AM 77.0 °F - 73.4 °F 89% 29.80 in 3.1 mi Calm Calm - N/A   Haze
4:30 AM 77.0 °F - 73.4 °F 89% 29.80 in 3.1 mi Calm Calm - N/A   Haze
5:00 AM 77.0 °F - 75.2 °F 94% 29.80 in 3.1 mi Calm Calm - N/A   Haze
5:30 AM 77.0 °F - 75.2 °F 94% 29.80 in 3.1 mi Calm Calm - N/A   Haze
6:00 AM 77.0 °F - 73.4 °F 89% 29.80 in 3.1 mi Calm Calm - N/A   Haze
6:30 AM 77.0 °F - 73.4 °F 89% 29.80 in 3.1 mi Calm Calm - N/A   Haze
7:00 AM 77 °F - 74 °F 87%  in 3 mi WSW 4.6 mph - -   Overcast
7:00 AM 77.0 °F - 73.4 °F 89% 29.80 in 3.1 mi WSW 4.6 mph - N/A   Haze
7:30 AM 77.0 °F - 73.4 °F 89% 29.83 in 3.1 mi Calm Calm - N/A   Haze
8:00 AM 78.8 °F - 73.4 °F 83% 29.83 in 4.3 mi Calm Calm - N/A   Scattered Clouds
8:30 AM 82.4 °F 88.2 °F 73.4 °F 74% 29.83 in 4.3 mi Calm Calm - N/A   Scattered Clouds
9:00 AM 82.4 °F 88.2 °F 73.4 °F 74% 29.86 in 4.3 mi Calm Calm - N/A   Scattered Clouds
9:30 AM 84.2 °F 90.9 °F 73.4 °F 70% 29.86 in 4.3 mi Calm Calm - N/A   Scattered Clouds
10:00 AM 84 °F - 74 °F 64% 29.86 in 4 mi Calm Calm - -   Partly Cloudy
10:00 AM 84.2 °F 90.9 °F 73.4 °F 70% 29.86 in 4.3 mi Calm Calm - N/A   Scattered Clouds
10:30 AM 84.2 °F 90.9 °F 73.4 °F 70% 29.86 in 4.3 mi Calm Calm - N/A   Scattered Clouds
11:00 AM 86.0 °F 93.4 °F 73.4 °F 66% 29.83 in 4.3 mi Calm Calm - N/A   Scattered Clouds
11:30 AM 86.0 °F 93.4 °F 73.4 °F 66% 29.83 in 4.3 mi Calm Calm - N/A   Scattered Clouds
12:00 PM 87.8 °F 93.8 °F 71.6 °F 58% 29.83 in 4.3 mi Calm Calm - N/A   Scattered Clouds
12:30 PM 87.8 °F 93.8 °F 71.6 °F 58% 29.80 in 4.3 mi SSE 6.9 mph - N/A   Scattered Clouds
1:00 PM 87.8 °F 95.6 °F 73.4 °F 62% 29.80 in 5.0 mi South 4.6 mph - N/A   Scattered Clouds
1:30 PM 87.8 °F 95.6 °F 73.4 °F 62% 29.77 in 5.0 mi ENE 8.1 mph - N/A   Scattered Clouds
2:00 PM 89.6 °F 98.2 °F 73.4 °F 59% 29.77 in 5.0 mi Calm Calm - N/A   Scattered Clouds
2:30 PM 89.6 °F 98.2 °F 73.4 °F 59% 29.74 in 5.0 mi NE 6.9 mph - N/A   Scattered Clouds
3:00 PM 89.6 °F 98.2 °F 73.4 °F 59% 29.74 in 5.0 mi NNE 8.1 mph - N/A   Scattered Clouds
3:30 PM 89.6 °F 98.2 °F 73.4 °F 59% 29.74 in 5.0 mi ENE 15.0 mph - N/A   Scattered Clouds
4:00 PM 87.8 °F 95.6 °F 73.4 °F 62% 29.74 in 4.3 mi NE 13.8 mph - N/A   Scattered Clouds
4:30 PM 87.8 °F 95.6 °F 73.4 °F 62% 29.74 in 3.1 mi East 13.8 mph - N/A Thunderstorm Thunderstorm
5:00 PM 86.0 °F 93.4 °F 73.4 °F 66% 29.77 in 2.5 mi South 11.5 mph 19.6 mph N/A Thunderstorm Thunderstorm
5:30 PM 86.0 °F 93.4 °F 73.4 °F 66% 29.77 in 1.9 mi SW 11.5 mph - N/A Rain , Thunderstorm Thunderstorms and Rain
6:00 PM 77.0 °F - 73.4 °F 89% 29.77 in 1.9 mi Calm Calm - N/A Rain , Thunderstorm Thunderstorms and Rain
6:30 PM 77.0 °F - 73.4 °F 89% 29.77 in 1.9 mi WSW 5.8 mph - N/A   Haze
7:00 PM 77.0 °F - 73.4 °F 89% 29.80 in 2.5 mi Calm Calm - N/A   Haze
7:30 PM 77.0 °F - 73.4 °F 89% 29.80 in 3.7 mi West 4.6 mph - N/A   Scattered Clouds
8:00 PM 77.0 °F - 73.4 °F 89% 29.80 in 3.7 mi West 4.6 mph - N/A   Scattered Clouds
8:30 PM 77.0 °F - 73.4 °F 89% 29.83 in 3.7 mi Calm Calm - N/A   Scattered Clouds
9:00 PM 77.0 °F - 73.4 °F 89% 29.86 in 3.7 mi West 8.1 mph - N/A Thunderstorm Thunderstorm
9:30 PM 77.0 °F - 73.4 °F 89% 29.86 in 3.1 mi SW 4.6 mph - N/A Rain , Thunderstorm Thunderstorms and Rain
10:00 PM 75.2 °F - 73.4 °F 94% 29.86 in 3.7 mi SSW 5.8 mph - N/A Rain , Thunderstorm Light Thunderstorms and Rain
10:30 PM 75.2 °F - 73.4 °F 94% 29.86 in 3.7 mi SSW 4.6 mph - N/A Rain Light Rain
11:00 PM 75.2 °F - 71.6 °F 89% 29.86 in 5.0 mi Calm Calm - N/A Rain Light Rain
11:30 PM 75.2 °F - 71.6 °F 89% 29.86 in 3.7 mi NE 4.6 mph - N/A Rain Light Rain